EA7AZH-5 Weather Reports


time (UTC)temp
F
wind
direction
speed
knots
gust
knots
rain 1hr
in
rain 24hr
in
rain mn
in
humidity
%
barometer
mb
20260510234304 70 0.0 0.0 0.00 0.00 0.00 49 1014.0
20260510233304 70 0.0 0.0 0.00 0.00 0.00 49 1013.9
20260510232306 70 0.0 0.0 0.00 0.00 0.00 48 1013.8
20260510231304 70 0.0 0.0 0.00 0.00 0.00 49 1014.0
20260510230304 70 0.0 0.0 0.00 0.00 0.00 50 1014.1
20260510225306 70 0.0 0.0 0.00 0.00 0.00 52 1014.1
20260510224304 71 0.0 0.0 0.00 0.00 0.00 51 1014.0
20260510223304 70 0.0 0.0 0.00 0.00 0.00 52 1014.0
20260510222306 70 0.0 0.0 0.00 0.00 0.00 52 1014.1
20260510221309 71 0.0 0.0 0.00 0.00 0.00 52 1013.9
20260510220304 71 0.0 0.0 0.00 0.00 0.00 51 1014.1
20260510215306 72 0.0 0.0 0.00 0.00 0.00 51 1014.1
20260510214304 72 0.0 0.0 0.00 0.00 0.00 51 1014.2
20260510213304 72 0.0 0.0 0.00 0.00 0.00 50 1014.3
20260510212306 73 0.0 0.0 0.00 0.00 0.00 50 1014.3
20260510211304 72 0.0 0.0 0.00 0.00 0.00 50 1014.4
20260510210304 72 0.0 0.0 0.00 0.00 0.00 51 1014.4
20260510205309 72 0.0 0.0 0.00 0.00 0.00 50 1014.4
20260510204303 72 0.0 0.0 0.00 0.00 0.00 50 1014.3
20260510203304 72 0.0 0.0 0.00 0.00 0.00 52 1014.0
20260510202306 70 0.0 0.0 0.00 0.00 0.00 53 1014.0
20260510201304 70 0.0 0.0 0.00 0.00 0.00 53 1014.0
20260510200304 71 0.0 0.0 0.00 0.00 0.00 52 1013.9
20260510195308 71 0.0 0.0 0.00 0.00 0.00 51 1013.7
20260510194303 72 0.0 0.0 0.00 0.00 0.00 50 1013.7
20260510193303 72 0.0 0.0 0.00 0.00 0.00 49 1013.4
20260510192306 73 0.0 0.0 0.00 0.00 0.00 48 1013.5
20260510191309 74 0.0 0.0 0.00 0.00 0.00 47 1013.6
20260510190308 74 0.0 0.0 0.00 0.00 0.00 48 1013.7
20260510185305 74 0.0 0.0 0.00 0.00 0.00 47 1013.6
20260510184303 74 0.0 0.0 0.00 0.00 0.00 48 1013.7
20260510183303 72 0.0 0.0 0.00 0.00 0.00 50 1013.7
20260510182306 72 0.0 0.0 0.00 0.00 0.00 50 1013.9
20260510181308 72 0.0 0.0 0.00 0.00 0.00 50 1013.9
20260510180303 72 0.0 0.0 0.00 0.00 0.00 53 1013.9
20260510175308 72 0.0 0.0 0.00 0.00 0.00 52 1013.8
20260510174303 71 0.0 0.0 0.00 0.00 0.00 54 1013.7
20260510173303 71 0.0 0.0 0.00 0.00 0.00 53 1013.4
20260510172306 74 0.0 0.0 0.00 0.00 0.00 48 1013.6
20260510171303 74 0.0 0.0 0.00 0.00 0.00 48 1013.5
20260510170303 73 0.0 0.0 0.00 0.00 0.00 49 1013.6
20260510165305 74 0.0 0.0 0.00 0.00 0.00 47 1013.9
20260510164303 75 0.0 0.0 0.00 0.00 0.00 45 1013.7
20260510163303 74 0.0 0.0 0.00 0.00 0.00 48 1013.7
20260510162310 74 0.0 0.0 0.00 0.00 0.00 47 1013.7
20260510161303 75 0.0 0.0 0.00 0.00 0.00 44 1013.7
20260510160303 74 0.0 0.0 0.00 0.00 0.00 46 1013.7
20260510155308 74 0.0 0.0 0.00 0.00 0.00 45 1013.7
20260510154303 77 0.0 0.0 0.00 0.00 0.00 41 1013.5
20260510153303 77 0.0 0.0 0.00 0.00 0.00 41 1013.9
20260510152306 76 0.0 0.0 0.00 0.00 0.00 42 1013.6
20260510151302 75 0.0 0.0 0.00 0.00 0.00 44 1014.0
20260510150308 74 0.0 0.0 0.00 0.00 0.00 45 1014.2
20260510145308 73 0.0 0.0 0.00 0.00 0.00 46 1014.2
20260510144302 74 0.0 0.0 0.00 0.00 0.00 45 1014.4
20260510143307 76 0.0 0.0 0.00 0.00 0.00 42 1014.4
20260510142305 76 0.0 0.0 0.00 0.00 0.00 43 1014.6
20260510141303 75 0.0 0.0 0.00 0.00 0.00 45 1014.6
20260510140302 76 0.0 0.0 0.00 0.00 0.00 44 1014.8
20260510135305 76 0.0 0.0 0.00 0.00 0.00 43 1014.9
20260510134303 76 0.0 0.0 0.00 0.00 0.00 41 1014.8
20260510133302 77 0.0 0.0 0.00 0.00 0.00 40 1014.7
20260510132308 76 0.0 0.0 0.00 0.00 0.00 40 1014.6
20260510131302 75 0.0 0.0 0.00 0.00 0.00 42 1014.5
20260510130302 75 0.0 0.0 0.00 0.00 0.00 42 1014.5
20260510125308 74 0.0 0.0 0.00 0.00 0.00 44 1014.4
20260510124307 75 0.0 0.0 0.00 0.00 0.00 43 1014.6
20260510123302 74 0.0 0.0 0.00 0.00 0.00 44 1014.5
20260510122306 74 0.0 0.0 0.00 0.00 0.00 46 1014.7
20260510121302 75 0.0 0.0 0.00 0.00 0.00 44 1014.7
20260510120302 75 0.0 0.0 0.00 0.00 0.00 45 1014.7
20260510115305 75 0.0 0.0 0.00 0.00 0.00 47 1014.8
20260510114307 74 0.0 0.0 0.00 0.00 0.00 47 1015.0
20260510113307 74 0.0 0.0 0.00 0.00 0.00 46 1014.9
20260510112305 75 0.0 0.0 0.00 0.00 0.00 45 1015.1
20260510111302 76 0.0 0.0 0.00 0.00 0.00 43 1015.0
20260510110302 79 0.0 0.0 0.00 0.00 0.00 39 1015.1
20260510105306 77 0.0 0.0 0.00 0.00 0.00 39 1015.0
20260510104302 76 0.0 0.0 0.00 0.00 0.00 41 1015.0
20260510103302 76 0.0 0.0 0.00 0.00 0.00 40 1015.1
20260510102305 79 0.0 0.0 0.00 0.00 0.00 38 1015.2
20260510101302 79 0.0 0.0 0.00 0.00 0.00 38 1015.1
20260510100302 76 0.0 0.0 0.00 0.00 0.00 41 1015.1
20260510095305 76 0.0 0.0 0.00 0.00 0.00 41 1015.1
20260510094302 75 0.0 0.0 0.00 0.00 0.00 41 1015.1
20260510093301 75 0.0 0.0 0.00 0.00 0.00 42 1015.1
20260510092301 73 0.0 0.0 0.00 0.00 0.00 44 1015.0
20260510091302 72 0.0 0.0 0.00 0.00 0.00 45 1015.0
20260510090301 73 0.0 0.0 0.00 0.00 0.00 45 1015.1
20260510085301 75 0.0 0.0 0.00 0.00 0.00 41 1015.0
20260510084307 74 0.0 0.0 0.00 0.00 0.00 43 1014.9
20260510083307 74 0.0 0.0 0.00 0.00 0.00 45 1014.8
20260510082305 74 0.0 0.0 0.00 0.00 0.00 47 1014.8
20260510081302 73 0.0 0.0 0.00 0.00 0.00 48 1014.9
20260510080306 72 0.0 0.0 0.00 0.00 0.00 52 1014.9
20260510075301 71 0.0 0.0 0.00 0.00 0.00 52 1014.9
20260510074307 70 0.0 0.0 0.00 0.00 0.00 52 1014.8
20260510073301 70 0.0 0.0 0.00 0.00 0.00 53 1014.8
20260510072308 69 0.0 0.0 0.00 0.00 0.00 54 1014.7